Hourly Data Report for October 08, 2013

All times are specified in Local Standard Time (LST). Add 1 hour to adjust for Daylight Saving Time where and when it is observed.

PENTICTON A
BRITISH COLUMBIA

49°27'45.000" N
119°36'08.000" W
344.40 m
1126146
71889
YYF

Download Data

Hourly Data (October 2013)
Hourly Data Report for October 8, 2013
Temp Definition
°C
Dew Point Temp Definition
°C
Rel Hum Definition
%
Wind Dir Definition
10's deg

Wind Spd Definition
km/h
Visibility Definition
km
Stn Press Definition
kPa
Hmdx Definition


Wind Chill Definition


Weather Definition


TIME
00:00 Legend Double Dagger 12.0 3.3 55 17 13 24.1 96.85     LegendNANA
01:00 Legend Double Dagger 12.3 1.7 48 19 23 24.1 96.86     Cloudy
02:00 Legend Double Dagger 11.9 1.9 50 15 16 24.1 96.85     LegendNANA
03:00 Legend Double Dagger 11.2 2.0 53 19 15 24.1 96.84     LegendNANA
04:00 Legend Double Dagger 11.3 1.6 51 18 13 24.1 96.88     Cloudy
05:00 Legend Double Dagger 9.4 4.2 70 34 6 24.1 96.95     Rain Showers
06:00 Legend Double Dagger 8.3 3.8 73 2 24 24.1 97.05     Rain Showers
07:00 Legend Double Dagger 7.4 2.9 73 29 15 19.3 97.17     Rain Showers
08:00 Legend Double Dagger 8.0 4.2 77 1 5 24.1 97.21     Rain Showers
09:00 Legend Double Dagger 10.1 3.4 63 6 8 24.1 97.18     LegendNANA
10:00 Legend Double Dagger 10.4 3.0 60 4 10 24.1 97.20     Mostly Cloudy
11:00 Legend Double Dagger 11.8 3.9 58 3 9 24.1 97.24     LegendNANA
12:00 Legend Double Dagger 11.5 3.3 57 1 12 24.1 97.23     LegendNANA
13:00 Legend Double Dagger 12.4 2.3 50 1 15 24.1 97.23     Mostly Cloudy
14:00 Legend Double Dagger 13.6 1.3 43 1 14 24.1 97.24     LegendNANA
15:00 Legend Double Dagger 12.4 1.2 46 36 18 24.1 97.28     LegendNANA
16:00 Legend Double Dagger 12.1 0.9 46 32 10 24.1 97.33     Mostly Cloudy
17:00 Legend Double Dagger 11.1 0.6 48 34 14 24.1 97.40     LegendNANA
18:00 Legend Double Dagger 10.2 1.3 54 35 10 24.1 97.51     LegendNANA
19:00 Legend Double Dagger 9.9 0.5 52 36 14 24.1 97.59     Mostly Cloudy
20:00 Legend Double Dagger 6.1 -0.4 63 3 10 24.1 97.65     LegendNANA
21:00 Legend Double Dagger 6.2 0.5 67 32 11 24.1 97.71     LegendNANA
22:00 Legend Double Dagger 5.3 -0.1 68 36 13 24.1 97.78     Mainly Clear
23:00 Legend Double Dagger 4.3 -0.1 73 36 14 24.1 97.82     LegendNANA

Notes on Data Quality.

Legend

  • E = Estimated
  • M = Missing
  • NA = Not Available
  • ‡ = Partner data that is not subject to review by the National Climate Archives
Date modified: